ANZ29 KIAH-NZAA

Flight info

Callsign ANZ29
Flight time N/A
Altitude 32000
Route RITAA7 CRP DCT MTY DCT OTEKA UT148 KENDU DCT 1839N10808W 17N110W 13N115W 09N120W 05N125W/N0502F340 0330N12653W 01N130W 03S135W 07S140W 11S145W/N0494F360 14S150W 16S155W DCT MASBU DCT 18S160W DCT DOGSA/N0486F380 DCT 23S170W DCT TERAN DCT 30S180E DCT ELPAK
Aircraft B77W/H-SDE1E2E3FGHIJ2J3J4J5M1RWXY/LB1D1

Departure

Time 2026-05-04 02:38
Airport George Bush Intercontinental Airport (KIAH)

Arrival

Time N/A
Airport Auckland International Airport (NZAA)
Time Latitude Longitude Altitude Speed Heading
2026-05-04 01:42 29.98378 -95.33464 112 ft 0 kts 325°
2026-05-04 02:18 29.98366 -95.33455 108 ft 4 kts 333°
2026-05-04 02:18 29.98341 -95.33446 109 ft 4 kts
2026-05-04 02:18 29.98317 -95.33453 109 ft 4 kts 36°
2026-05-04 02:19 29.98301 -95.33475 108 ft 4 kts 83°
2026-05-04 02:19 29.98301 -95.33481 108 ft 0 kts 90°
2026-05-04 02:22 29.98301 -95.33469 109 ft 3 kts 90°
2026-05-04 02:23 29.98300 -95.33437 110 ft 4 kts 90°
2026-05-04 02:23 29.98280 -95.33405 108 ft 7 kts 154°
2026-05-04 02:23 29.98260 -95.33400 109 ft 3 kts 173°
2026-05-04 02:23 29.98240 -95.33413 111 ft 4 kts 228°
2026-05-04 02:24 29.98231 -95.33456 109 ft 7 kts 264°
2026-05-04 02:24 29.98227 -95.33529 109 ft 11 kts 269°
2026-05-04 02:24 29.98228 -95.33624 109 ft 13 kts 274°
2026-05-04 02:24 29.98262 -95.33684 111 ft 11 kts 341°
2026-05-04 02:25 29.98320 -95.33727 108 ft 11 kts 283°
2026-05-04 02:25 29.98317 -95.33828 110 ft 14 kts 270°
2026-05-04 02:25 29.98319 -95.33953 110 ft 17 kts 276°
2026-05-04 02:25 29.98357 -95.34059 111 ft 11 kts 297°
2026-05-04 02:26 29.98376 -95.34159 110 ft 14 kts 269°
2026-05-04 02:26 29.98375 -95.34284 110 ft 17 kts 270°
2026-05-04 02:26 29.98370 -95.34413 109 ft 15 kts 260°
2026-05-04 02:26 29.98325 -95.34531 109 ft 17 kts 264°
2026-05-04 02:27 29.98323 -95.34682 109 ft 20 kts 272°
2026-05-04 02:27 29.98326 -95.34818 109 ft 17 kts 271°
2026-05-04 02:27 29.98324 -95.34968 109 ft 20 kts 269°
2026-05-04 02:27 29.98323 -95.35076 109 ft 11 kts 269°
2026-05-04 02:28 29.98330 -95.35166 109 ft 11 kts 297°
2026-05-04 02:28 29.98362 -95.35188 109 ft 2 kts 332°
2026-05-04 02:28 29.98384 -95.35202 109 ft 5 kts 331°
2026-05-04 02:28 29.98429 -95.35230 109 ft 9 kts 331°
2026-05-04 02:29 29.98480 -95.35262 109 ft 9 kts 331°
2026-05-04 02:29 29.98547 -95.35304 110 ft 13 kts 331°
2026-05-04 02:29 29.98634 -95.35358 109 ft 16 kts 331°
2026-05-04 02:29 29.98741 -95.35422 111 ft 19 kts 332°
2026-05-04 02:30 29.98837 -95.35479 111 ft 11 kts 332°
2026-05-04 02:30 29.98903 -95.35519 109 ft 12 kts 330°
2026-05-04 02:30 29.98985 -95.35572 111 ft 15 kts 331°
2026-05-04 02:30 29.99041 -95.35607 108 ft 1 kts 331°
2026-05-04 02:31 29.99058 -95.35613 110 ft 4 kts 353°
2026-05-04 02:31 29.99080 -95.35589 109 ft 6 kts 79°
2026-05-04 02:31 29.99074 -95.35532 110 ft 9 kts 105°
2026-05-04 02:31 29.99023 -95.35487 110 ft 11 kts 168°
2026-05-04 02:32 29.98939 -95.35489 108 ft 14 kts 193°
2026-05-04 02:32 29.98919 -95.35496 109 ft 3 kts 200°
2026-05-04 02:32 29.98900 -95.35519 109 ft 5 kts 239°
2026-05-04 02:32 29.98877 -95.35567 111 ft 9 kts 242°
2026-05-04 02:33 29.98847 -95.35631 110 ft 10 kts 242°
2026-05-04 02:33 29.98833 -95.35662 109 ft 0 kts 242°
2026-05-04 02:33 29.98831 -95.35667 109 ft 0 kts 242°
2026-05-04 02:35 29.98828 -95.35673 110 ft 2 kts 242°
2026-05-04 02:35 29.98816 -95.35698 111 ft 0 kts 241°
2026-05-04 02:35 29.98811 -95.35709 110 ft 3 kts 239°
2026-05-04 02:35 29.98793 -95.35732 112 ft 5 kts 221°
2026-05-04 02:36 29.98756 -95.35747 109 ft 7 kts 185°
2026-05-04 02:36 29.98702 -95.35731 109 ft 0 kts 156°
2026-05-04 02:36 29.98689 -95.35723 110 ft 4 kts 152°
2026-05-04 02:36 29.98680 -95.35718 110 ft 0 kts 151°
2026-05-04 02:37 29.98679 -95.35717 110 ft 2 kts 151°
2026-05-04 02:37 29.98644 -95.35694 109 ft 15 kts 151°
2026-05-04 02:37 29.98471 -95.35587 110 ft 41 kts 152°
2026-05-04 02:38 29.98003 -95.35303 111 ft 114 kts 152°
2026-05-04 02:38 29.97078 -95.34738 108 ft 184 kts 153°
2026-05-04 02:38 29.95812 -95.33973 335 ft 214 kts 153°
2026-05-04 02:38 29.94558 -95.33238 1574 ft 185 kts 154°
2026-05-04 02:39 29.93394 -95.32559 2234 ft 194 kts 154°
2026-05-04 02:39 29.92146 -95.31825 2382 ft 206 kts 154°
2026-05-04 02:39 29.90892 -95.31108 2897 ft 193 kts 153°
2026-05-04 02:39 29.89736 -95.30400 3336 ft 189 kts 150°
2026-05-04 02:40 29.88535 -95.29640 3365 ft 205 kts 152°
2026-05-04 02:40 29.87280 -95.28840 3611 ft 204 kts 147°